Zurück zum Katalog

STARLINK-34484

AktivKommunikationVLEO
NORAD 64366·PAYLOAD·🇺🇸 United States

Gestartet Jun 13, 2025 von Vandenberg Space Force Base

Loading…

Nächste Überflüge (nächste 24 Stunden)

TLE

AktuellSource: CelesTrak SupGP

Epoche: Sep 14, 2026, 23:14 UTC

1 64366C 25126Y   26257.96854167  .00059877  00000+0  20831-2 0  2577
2 64366  70.0006 275.4103 0003271 266.0075 293.2502 15.29546473    11

Verfolge STARLINK-34484 in Echtzeit mit AllMySat

Download on the App Store